Location: Ferintosh
(52.7647°N, 112.9692°W)
Time: 20:07:44
(UTC+00:00)

Explorer 7 - Pass Details

Date: 27 May 2024
Orbit: 466 x 622 km, 50.3° (Epoch: 16 June)

Event Time Altitude Azimuth Distance (km) Brightness Sun altitude
Rises 09:02:36 0° 277° (W) 2,592 10.1 -13.1°
Reaches altitude 10° 09:04:50 10° 270° (W) 1,731 9.1 -13.0°
Maximum altitude 09:08:30 38° 201° (SSW) 810 7.2 -12.7°
Drops below altitude 10° 09:12:20 10° 132° (SE) 1,816 9.3 -12.5°
Sets 09:14:44 0° 125° (SE) 2,739 10.3 -12.4°
